Time,TemperatureF,DewpointF,PressureIn,WindDirection,WindDirectionDegrees,WindSpeedMPH,WindSpeedGustMPH,Humidity,HourlyPrecipIn,Conditions,Clouds,dailyrainin,SoftwareType,DateUTC
2013-01-25 00:02:00,18.0,14.0,30.16,South,182,0.0,-999.0,83,-99.99,,,-99.99,,2013-01-25 07:02:00,
2013-01-25 00:11:00,18.0,14.0,30.16,South,182,0.0,-999.0,83,-99.99,,,-99.99,,2013-01-25 07:11:00,
2013-01-25 00:21:00,17.0,13.0,30.16,South,182,0.0,-999.0,84,-99.99,,,-99.99,,2013-01-25 07:21:00,
2013-01-25 00:32:00,17.0,13.0,30.16,South,182,0.0,-999.0,85,-99.99,,,-99.99,,2013-01-25 07:32:00,
2013-01-25 00:42:00,17.0,13.0,30.16,South,182,0.0,-999.0,85,-99.99,,,-99.99,,2013-01-25 07:42:00,
2013-01-25 00:52:00,15.0,11.0,30.16,South,182,0.0,-999.0,85,-99.99,,,-99.99,,2013-01-25 07:52:00,
2013-01-25 01:01:00,14.0,11.0,30.16,South,182,0.0,-999.0,86,-99.99,,,-99.99,,2013-01-25 08:01:00,
2013-01-25 01:11:00,14.0,11.0,30.16,South,182,0.0,-999.0,86,-99.99,,,-99.99,,2013-01-25 08:11:00,
2013-01-25 01:21:00,14.0,11.0,30.16,South,182,0.0,-999.0,86,-99.99,,,-99.99,,2013-01-25 08:21:00,
2013-01-25 01:32:00,13.0,10.0,30.16,South,182,0.0,-999.0,86,-99.99,,,-99.99,,2013-01-25 08:32:00,
2013-01-25 01:41:00,13.0,10.0,30.16,South,182,0.0,-999.0,86,-99.99,,,-99.99,,2013-01-25 08:41:00,
2013-01-25 01:52:00,13.0,10.0,30.17,South,182,0.0,-999.0,87,-99.99,,,-99.99,,2013-01-25 08:52:00,
2013-01-25 02:02:00,13.0,10.0,30.18,South,184,0.0,-999.0,88,-99.99,,,-99.99,,2013-01-25 09:02:00,
2013-01-25 02:11:00,13.0,10.0,30.18,South,184,0.0,-999.0,88,-99.99,,,-99.99,,2013-01-25 09:11:00,
2013-01-25 02:21:00,14.0,12.0,30.17,South,184,0.0,-999.0,90,-99.99,,,-99.99,,2013-01-25 09:21:00,
2013-01-25 02:31:00,15.0,12.0,30.17,South,184,0.0,-999.0,89,-99.99,,,-99.99,,2013-01-25 09:31:00,
2013-01-25 02:41:00,15.0,12.0,30.17,South,184,0.0,-999.0,89,-99.99,,,-99.99,,2013-01-25 09:41:00,
2013-01-25 02:52:00,15.0,12.0,30.17,South,184,0.0,-999.0,89,-99.99,,,-99.99,,2013-01-25 09:52:00,
2013-01-25 03:02:00,14.0,11.0,30.17,South,184,1.0,-999.0,87,-99.99,,,-99.99,,2013-01-25 10:02:00,
2013-01-25 03:12:00,14.0,11.0,30.17,South,184,1.0,-999.0,87,-99.99,,,-99.99,,2013-01-25 10:12:00,
2013-01-25 03:21:00,14.0,11.0,30.17,South,184,0.0,-999.0,87,-99.99,,,-99.99,,2013-01-25 10:21:00,
2013-01-25 03:32:00,13.0,10.0,30.16,South,184,0.0,-999.0,86,-99.99,,,-99.99,,2013-01-25 10:32:00,
2013-01-25 03:42:00,13.0,10.0,30.16,South,184,0.0,-999.0,86,-99.99,,,-99.99,,2013-01-25 10:42:00,
2013-01-25 03:52:00,12.0,9.0,30.16,South,184,1.0,-999.0,87,-99.99,,,-99.99,,2013-01-25 10:52:00,
2013-01-25 04:02:00,12.0,9.0,30.17,South,184,0.0,-999.0,87,-99.99,,,-99.99,,2013-01-25 11:02:00,
2013-01-25 04:11:00,12.0,9.0,30.17,South,184,0.0,-999.0,87,-99.99,,,-99.99,,2013-01-25 11:11:00,
2013-01-25 04:22:00,11.0,8.0,30.17,SSE,148,0.0,-999.0,86,-99.99,,,-99.99,,2013-01-25 11:22:00,
2013-01-25 04:32:00,11.0,8.0,30.17,SSE,148,1.0,-999.0,88,-99.99,,,-99.99,,2013-01-25 11:32:00,
2013-01-25 04:42:00,11.0,8.0,30.17,SSE,148,1.0,-999.0,88,-99.99,,,-99.99,,2013-01-25 11:42:00,
2013-01-25 04:52:00,12.0,9.0,30.17,SSE,148,0.0,-999.0,88,-99.99,,,-99.99,,2013-01-25 11:52:00,
2013-01-25 05:02:00,12.0,9.0,30.16,SSE,149,3.0,-999.0,88,-99.99,,,-99.99,,2013-01-25 12:02:00,
2013-01-25 05:11:00,12.0,9.0,30.16,SSE,149,3.0,-999.0,88,-99.99,,,-99.99,,2013-01-25 12:11:00,
2013-01-25 05:22:00,11.0,8.0,30.17,SSE,149,1.0,-999.0,87,-99.99,,,-99.99,,2013-01-25 12:22:00,
2013-01-25 05:32:00,11.0,8.0,30.17,SSE,149,1.0,-999.0,86,-99.99,,,-99.99,,2013-01-25 12:32:00,
2013-01-25 05:42:00,11.0,8.0,30.17,SSE,149,1.0,-999.0,86,-99.99,,,-99.99,,2013-01-25 12:42:00,
2013-01-25 05:53:00,10.0,7.0,30.18,SSE,149,1.0,-999.0,86,-99.99,,,-99.99,,2013-01-25 12:53:00,
2013-01-25 06:02:00,9.0,6.0,30.18,SSE,149,0.0,-999.0,86,-99.99,,,-99.99,,2013-01-25 13:02:00,
2013-01-25 06:11:00,9.0,6.0,30.18,SSE,149,0.0,-999.0,86,-99.99,,,-99.99,,2013-01-25 13:11:00,
2013-01-25 06:22:00,9.0,6.0,30.19,SSE,149,0.0,-999.0,87,-99.99,,,-99.99,,2013-01-25 13:22:00,
2013-01-25 06:32:00,9.0,6.0,30.18,SE,133,1.0,-999.0,87,-99.99,,,-99.99,,2013-01-25 13:32:00,
2013-01-25 06:42:00,9.0,6.0,30.18,SE,133,1.0,-999.0,87,-99.99,,,-99.99,,2013-01-25 13:42:00,
2013-01-25 06:53:00,9.0,6.0,30.19,North,350,3.0,-999.0,89,-99.99,,,-99.99,,2013-01-25 13:53:00,
2013-01-25 07:02:00,12.0,10.0,30.18,NNW,333,5.0,-999.0,90,-99.99,,,-99.99,,2013-01-25 14:02:00,
2013-01-25 07:12:00,12.0,10.0,30.18,NNW,333,5.0,-999.0,90,-99.99,,,-99.99,,2013-01-25 14:12:00,
2013-01-25 07:22:00,12.0,10.0,30.19,NNW,336,5.0,-999.0,90,-99.99,,,-99.99,,2013-01-25 14:22:00,
2013-01-25 07:32:00,12.0,10.0,30.19,NNW,333,5.0,-999.0,90,-99.99,,,-99.99,,2013-01-25 14:32:00,
2013-01-25 07:42:00,12.0,10.0,30.19,NNW,333,5.0,-999.0,90,-99.99,,,-99.99,,2013-01-25 14:42:00,
2013-01-25 07:53:00,11.0,8.0,30.20,NW,325,5.0,-999.0,89,-99.99,,,-99.99,,2013-01-25 14:53:00,
2013-01-25 08:02:00,11.0,9.0,30.21,NNW,329,4.0,-999.0,90,-99.99,,,-99.99,,2013-01-25 15:02:00,
2013-01-25 08:12:00,11.0,9.0,30.21,NNW,329,4.0,-999.0,90,-99.99,,,-99.99,,2013-01-25 15:12:00,
2013-01-25 08:22:00,11.0,8.0,30.20,NNW,344,5.0,-999.0,89,-99.99,,,-99.99,,2013-01-25 15:22:00,
2013-01-25 08:32:00,11.0,8.0,30.20,NNW,339,6.0,-999.0,89,-99.99,,,-99.99,,2013-01-25 15:32:00,
2013-01-25 08:42:00,11.0,8.0,30.20,NNW,339,6.0,-999.0,89,-99.99,,,-99.99,,2013-01-25 15:42:00,
2013-01-25 08:53:00,11.0,8.0,30.21,NNW,340,3.0,-999.0,89,-99.99,,,-99.99,,2013-01-25 15:53:00,
2013-01-25 09:03:00,11.0,8.0,30.21,NNW,334,4.0,-999.0,89,-99.99,,,-99.99,,2013-01-25 16:03:00,
2013-01-25 09:12:00,11.0,8.0,30.21,NNW,334,4.0,-999.0,89,-99.99,,,-99.99,,2013-01-25 16:12:00,
2013-01-25 09:22:00,11.0,8.0,30.22,NNW,338,5.0,-999.0,89,-99.99,,,-99.99,,2013-01-25 16:22:00,
2013-01-25 09:32:00,12.0,9.0,30.22,NNW,347,6.0,-999.0,88,-99.99,,,-99.99,,2013-01-25 16:32:00,
2013-01-25 09:42:00,12.0,9.0,30.22,NNW,347,6.0,-999.0,88,-99.99,,,-99.99,,2013-01-25 16:42:00,
2013-01-25 09:53:00,12.0,9.0,30.23,NNW,348,4.0,-999.0,88,-99.99,,,-99.99,,2013-01-25 16:53:00,
2013-01-25 10:02:00,13.0,10.0,30.22,North,355,5.0,-999.0,88,-99.99,,,-99.99,,2013-01-25 17:02:00,
2013-01-25 10:12:00,13.0,10.0,30.22,North,355,5.0,-999.0,88,-99.99,,,-99.99,,2013-01-25 17:12:00,
2013-01-25 10:22:00,13.0,10.0,30.22,North,360,5.0,-999.0,87,-99.99,,,-99.99,,2013-01-25 17:22:00,
2013-01-25 10:32:00,14.0,11.0,30.22,North,360,6.0,-999.0,87,-99.99,,,-99.99,,2013-01-25 17:32:00,
2013-01-25 10:42:00,14.0,11.0,30.22,North,360,6.0,-999.0,87,-99.99,,,-99.99,,2013-01-25 17:42:00,
2013-01-25 10:53:00,15.0,12.0,30.21,North,360,5.0,-999.0,86,-99.99,,,-99.99,,2013-01-25 17:53:00,
2013-01-25 11:03:00,16.0,12.0,30.21,NNE,26,4.0,-999.0,85,-99.99,,,-99.99,,2013-01-25 18:03:00,
2013-01-25 11:12:00,16.0,12.0,30.21,NNE,26,4.0,-999.0,85,-99.99,,,-99.99,,2013-01-25 18:12:00,
2013-01-25 11:23:00,16.0,12.0,30.21,NNE,23,4.0,-999.0,84,-99.99,,,-99.99,,2013-01-25 18:23:00,
2013-01-25 11:32:00,17.0,13.0,30.19,NNE,19,4.0,-999.0,84,-99.99,,,-99.99,,2013-01-25 18:32:00,
2013-01-25 11:42:00,17.0,13.0,30.19,NNE,19,4.0,-999.0,84,-99.99,,,-99.99,,2013-01-25 18:42:00,
2013-01-25 11:52:00,17.0,13.0,30.19,NNE,12,4.0,-999.0,83,-99.99,,,-99.99,,2013-01-25 18:52:00,
2013-01-25 12:02:00,18.0,14.0,30.19,North,11,4.0,-999.0,83,-99.99,,,-99.99,,2013-01-25 19:02:00,
2013-01-25 12:12:00,18.0,14.0,30.19,North,11,4.0,-999.0,83,-99.99,,,-99.99,,2013-01-25 19:12:00,
2013-01-25 12:22:00,19.0,14.0,30.18,North,11,4.0,-999.0,82,-99.99,,,-99.99,,2013-01-25 19:22:00,
2013-01-25 12:32:00,20.0,15.0,30.16,North,11,3.0,-999.0,82,-99.99,,,-99.99,,2013-01-25 19:32:00,
2013-01-25 12:42:00,20.0,15.0,30.16,North,11,3.0,-999.0,82,-99.99,,,-99.99,,2013-01-25 19:42:00,
2013-01-25 12:53:00,21.0,16.0,30.15,North,9,5.0,-999.0,81,-99.99,,,-99.99,,2013-01-25 19:53:00,
2013-01-25 13:02:00,21.0,16.0,30.15,North,9,5.0,-999.0,81,-99.99,,,-99.99,,2013-01-25 20:02:00,
2013-01-25 13:12:00,21.0,16.0,30.15,North,9,5.0,-999.0,81,-99.99,,,-99.99,,2013-01-25 20:12:00,
2013-01-25 13:22:00,22.0,17.0,30.15,North,5,3.0,-999.0,80,-99.99,,,-99.99,,2013-01-25 20:22:00,
2013-01-25 13:32:00,22.0,17.0,30.15,North,5,3.0,-999.0,80,-99.99,,,-99.99,,2013-01-25 20:32:00,
2013-01-25 13:43:00,22.0,17.0,30.15,North,5,3.0,-999.0,80,-99.99,,,-99.99,,2013-01-25 20:43:00,
2013-01-25 13:52:00,23.0,17.0,30.14,North,5,3.0,-999.0,79,-99.99,,,-99.99,,2013-01-25 20:52:00,
2013-01-25 14:02:00,24.0,18.0,30.12,North,5,2.0,-999.0,78,-99.99,,,-99.99,,2013-01-25 21:02:00,
2013-01-25 14:12:00,24.0,18.0,30.12,North,5,2.0,-999.0,78,-99.99,,,-99.99,,2013-01-25 21:12:00,
2013-01-25 14:22:00,25.0,19.0,30.12,North,5,1.0,-999.0,77,-99.99,,,-99.99,,2013-01-25 21:22:00,
2013-01-25 14:33:00,25.0,19.0,30.12,North,5,2.0,-999.0,77,-99.99,,,-99.99,,2013-01-25 21:33:00,
2013-01-25 14:42:00,25.0,19.0,30.12,North,5,2.0,-999.0,77,-99.99,,,-99.99,,2013-01-25 21:42:00,
2013-01-25 14:52:00,25.0,19.0,30.11,North,5,1.0,-999.0,77,-99.99,,,-99.99,,2013-01-25 21:52:00,
2013-01-25 15:02:00,25.0,19.0,30.11,North,5,0.0,-999.0,76,-99.99,,,-99.99,,2013-01-25 22:02:00,
2013-01-25 15:11:00,25.0,19.0,30.11,North,5,0.0,-999.0,76,-99.99,,,-99.99,,2013-01-25 22:11:00,
2013-01-25 15:22:00,25.0,19.0,30.11,North,5,0.0,-999.0,76,-99.99,,,-99.99,,2013-01-25 22:22:00,
2013-01-25 15:32:00,26.0,19.0,30.09,North,5,0.0,-999.0,76,-99.99,,,-99.99,,2013-01-25 22:32:00,
2013-01-25 15:42:00,26.0,19.0,30.09,North,5,0.0,-999.0,76,-99.99,,,-99.99,,2013-01-25 22:42:00,
2013-01-25 15:53:00,25.0,19.0,30.09,North,5,2.0,-999.0,77,-99.99,,,-99.99,,2013-01-25 22:53:00,
2013-01-25 16:02:00,25.0,19.0,30.09,North,5,3.0,-999.0,78,-99.99,,,-99.99,,2013-01-25 23:02:00,
2013-01-25 16:12:00,25.0,19.0,30.09,North,5,3.0,-999.0,78,-99.99,,,-99.99,,2013-01-25 23:12:00,
2013-01-25 16:22:00,24.0,18.0,30.09,North,355,3.0,-999.0,78,-99.99,,,-99.99,,2013-01-25 23:22:00,
2013-01-25 16:32:00,24.0,18.0,30.09,North,355,3.0,-999.0,79,-99.99,,,-99.99,,2013-01-25 23:32:00,
2013-01-25 16:42:00,24.0,18.0,30.09,North,355,3.0,-999.0,79,-99.99,,,-99.99,,2013-01-25 23:42:00,
2013-01-25 16:53:00,23.0,18.0,30.09,North,355,2.0,-999.0,80,-99.99,,,-99.99,,2013-01-25 23:53:00,
2013-01-25 17:02:00,22.0,17.0,30.09,North,355,1.0,-999.0,80,-99.99,,,-99.99,,2013-01-26 00:02:00,
2013-01-25 17:11:00,22.0,17.0,30.09,North,355,1.0,-999.0,80,-99.99,,,-99.99,,2013-01-26 00:11:00,
2013-01-25 17:22:00,21.0,16.0,30.08,North,355,0.0,-999.0,82,-99.99,,,-99.99,,2013-01-26 00:22:00,
2013-01-25 17:32:00,20.0,16.0,30.08,North,355,0.0,-999.0,83,-99.99,,,-99.99,,2013-01-26 00:32:00,
2013-01-25 17:42:00,20.0,16.0,30.08,North,355,0.0,-999.0,83,-99.99,,,-99.99,,2013-01-26 00:42:00,
2013-01-25 17:53:00,20.0,16.0,30.08,North,355,0.0,-999.0,83,-99.99,,,-99.99,,2013-01-26 00:53:00,
2013-01-25 18:01:00,20.0,16.0,30.08,North,355,0.0,-999.0,84,-99.99,,,-99.99,,2013-01-26 01:01:00,
2013-01-25 18:11:00,20.0,16.0,30.08,North,355,0.0,-999.0,84,-99.99,,,-99.99,,2013-01-26 01:11:00,
2013-01-25 18:22:00,20.0,16.0,30.08,North,355,0.0,-999.0,85,-99.99,,,-99.99,,2013-01-26 01:22:00,
2013-01-25 18:32:00,20.0,16.0,30.07,North,355,0.0,-999.0,86,-99.99,,,-99.99,,2013-01-26 01:32:00,
2013-01-25 18:42:00,20.0,16.0,30.07,North,355,0.0,-999.0,86,-99.99,,,-99.99,,2013-01-26 01:42:00,
2013-01-25 18:52:00,20.0,17.0,30.07,North,355,0.0,-999.0,87,-99.99,,,-99.99,,2013-01-26 01:52:00,
2013-01-25 19:01:00,21.0,18.0,30.06,North,355,0.0,-999.0,87,-99.99,,,-99.99,,2013-01-26 02:01:00,
2013-01-25 19:11:00,21.0,18.0,30.06,North,355,0.0,-999.0,87,-99.99,,,-99.99,,2013-01-26 02:11:00,
2013-01-25 19:22:00,21.0,18.0,30.05,North,355,0.0,-999.0,87,-99.99,,,-99.99,,2013-01-26 02:22:00,
2013-01-25 19:32:00,21.0,17.0,30.05,North,355,0.0,-999.0,86,-99.99,,,-99.99,,2013-01-26 02:32:00,
2013-01-25 19:42:00,21.0,17.0,30.05,North,355,0.0,-999.0,86,-99.99,,,-99.99,,2013-01-26 02:42:00,
2013-01-25 19:52:00,22.0,18.0,30.05,North,355,0.0,-999.0,86,-99.99,,,-99.99,,2013-01-26 02:52:00,
2013-01-25 20:02:00,22.0,18.0,30.05,North,355,0.0,-999.0,86,-99.99,,,-99.99,,2013-01-26 03:02:00,
2013-01-25 20:11:00,22.0,18.0,30.05,North,355,0.0,-999.0,86,-99.99,,,-99.99,,2013-01-26 03:11:00,
2013-01-25 20:21:00,22.0,19.0,30.04,North,355,0.0,-999.0,88,-99.99,,,-99.99,,2013-01-26 03:21:00,
2013-01-25 20:31:00,22.0,19.0,30.04,North,355,0.0,-999.0,88,-99.99,,,-99.99,,2013-01-26 03:31:00,
2013-01-25 20:43:00,22.0,19.0,30.04,North,355,0.0,-999.0,88,-99.99,,,-99.99,,2013-01-26 03:43:00,
2013-01-25 20:51:00,22.0,19.0,30.04,North,355,0.0,-999.0,87,-99.99,,,-99.99,,2013-01-26 03:51:00,
2013-01-25 21:02:00,22.0,18.0,30.03,North,355,0.0,-999.0,86,-99.99,,,-99.99,,2013-01-26 04:02:00,
2013-01-25 21:12:00,22.0,18.0,30.03,North,355,0.0,-999.0,86,-99.99,,,-99.99,,2013-01-26 04:12:00,
2013-01-25 21:21:00,21.0,17.0,30.03,North,355,0.0,-999.0,86,-99.99,,,-99.99,,2013-01-26 04:21:00,
2013-01-25 21:32:00,21.0,17.0,30.03,North,355,0.0,-999.0,85,-99.99,,,-99.99,,2013-01-26 04:32:00,
2013-01-25 21:42:00,21.0,17.0,30.03,North,355,0.0,-999.0,85,-99.99,,,-99.99,,2013-01-26 04:42:00,
2013-01-25 21:52:00,21.0,17.0,30.03,North,355,0.0,-999.0,85,-99.99,,,-99.99,,2013-01-26 04:52:00,
2013-01-25 22:03:00,21.0,18.0,30.03,North,355,0.0,-999.0,87,-99.99,,,-99.99,,2013-01-26 05:03:00,
2013-01-25 22:12:00,21.0,18.0,30.03,North,355,0.0,-999.0,87,-99.99,,,-99.99,,2013-01-26 05:12:00,
2013-01-25 22:23:00,21.0,18.0,30.03,North,355,0.0,-999.0,88,-99.99,,,-99.99,,2013-01-26 05:23:00,
2013-01-25 22:33:00,21.0,18.0,30.03,North,355,0.0,-999.0,88,-99.99,,,-99.99,,2013-01-26 05:33:00,
2013-01-25 22:41:00,21.0,18.0,30.03,North,355,0.0,-999.0,88,-99.99,,,-99.99,,2013-01-26 05:41:00,
2013-01-25 22:52:00,22.0,19.0,30.03,North,355,0.0,-999.0,89,-99.99,,,-99.99,,2013-01-26 05:52:00,
2013-01-25 23:02:00,22.0,19.0,30.02,North,355,0.0,-999.0,89,-99.99,,,-99.99,,2013-01-26 06:02:00,
2013-01-25 23:12:00,22.0,19.0,30.02,North,355,0.0,-999.0,89,-99.99,,,-99.99,,2013-01-26 06:12:00,
2013-01-25 23:21:00,23.0,21.0,30.02,North,355,0.0,-999.0,90,-99.99,,,-99.99,,2013-01-26 06:21:00,
2013-01-25 23:31:00,23.0,21.0,30.02,North,355,0.0,-999.0,90,-99.99,,,-99.99,,2013-01-26 06:31:00,
2013-01-25 23:41:00,23.0,21.0,30.02,North,355,0.0,-999.0,90,-99.99,,,-99.99,,2013-01-26 06:41:00,
2013-01-25 23:52:00,23.0,21.0,30.03,North,355,0.0,-999.0,90,-99.99,,,-99.99,,2013-01-26 06:52:00,